Check out our new BloomSky Weather System.

Active alerts


No alerts


Thunder radar  blitzortung!


Rain radar more information rain snow radar


Visit our other weather sites:

Template documentation
and downloads

And another site



Weather Underground History page Text

Daily Summary for March 4, 2017 Units:  Metric    English   Both
« Previous Day
Next Day »
Daily Weekly Monthly Yearly Custom
  High: Low: Average:
Temperature: 18.3 °C 12.4 °C 14.7 °C
Dew Point: 14.1 °C 7.3 °C 11.2 °C
Humidity: 94 % 64 % 80 %
Wind Speed: 16.1 km/h 0 km/h 2.3 km/h
Wind Gust: 19.3 km/h - -
Wind:- - ESE
Pressure: 1030.4 hPa 1023.2 hPa -
Precipitation: 2.54 mm    
Historical Graphs
 
 
Tabular Data for March 4, 2017
Time Temperature Dew Point Pressure Wind Wind Speed Wind Gust Humidity Rainfall Rate (Hourly)
00:04 13.8 °C 7.3 °C 1030.4 hPa Calm     65 % 0 mm
00:09 13.8 °C 7.6 °C 1030.4 hPa Calm     66 % 0 mm
00:14 13.8 °C 7.8 °C 1030.4 hPa Calm   1.6 km/h 67 % 0 mm
00:19 13.8 °C 7.8 °C 1030.4 hPa Calm   1.6 km/h 67 % 0 mm
00:24 13.7 °C 7.9 °C 1030.4 hPa Calm   1.6 km/h 68 % 0 mm
00:29 13.5 °C 7.7 °C 1030.4 hPa Calm   1.6 km/h 68 % 0 mm
00:34 13.4 °C 7.8 °C 1030.4 hPa Calm   1.6 km/h 69 % 0 mm
00:39 13.3 °C 7.7 °C 1030.4 hPa Calm     69 % 0 mm
00:44 13.2 °C 7.8 °C 1030 hPa Calm     70 % 0 mm
00:49 13.2 °C 8.1 °C 1030.4 hPa Calm     71 % 0 mm
00:54 13.2 °C 8.3 °C 1030 hPa Calm   1.6 km/h 72 % 0 mm
00:59 13.3 °C 8.4 °C 1030 hPa Calm   1.6 km/h 72 % 0 mm
01:04 13.3 °C 8.4 °C 1030 hPa Calm   1.6 km/h 72 % 0 mm
01:09 13.3 °C 8.4 °C 1030 hPa Calm   1.6 km/h 72 % 0 mm
01:14 13.4 °C 8.5 °C 1030 hPa Calm   1.6 km/h 72 % 0 mm
01:19 13.6 °C 8.6 °C 1030 hPa Calm     72 % 0 mm
01:24 13.6 °C 8.6 °C 1030 hPa Calm   1.6 km/h 72 % 0 mm
01:29 13.6 °C 8.6 °C 1030 hPa Calm   1.6 km/h 72 % 0 mm
01:34 13.7 °C 8.7 °C 1029.7 hPa Calm   1.6 km/h 72 % 0 mm
01:39 13.7 °C 8.7 °C 1029.7 hPa Calm     72 % 0 mm
01:44 13.7 °C 8.7 °C 1029.7 hPa Calm   1.6 km/h 72 % 0 mm
01:50 13.7 °C 8.7 °C 1029.7 hPa Calm   1.6 km/h 72 % 0 mm
01:55 13.7 °C 8.7 °C 1029.7 hPa Calm   1.6 km/h 72 % 0 mm
02:00 13.6 °C 8.6 °C 1029.7 hPa Calm   1.6 km/h 72 % 0 mm
02:05 13.5 °C 8.8 °C 1029.3 hPa Calm   1.6 km/h 73 % 0 mm
02:10 13.5 °C 8.8 °C 1029.3 hPa Calm   1.6 km/h 73 % 0 mm
02:15 13.4 °C 8.7 °C 1029.3 hPa Calm   1.6 km/h 73 % 0 mm
02:20 13.4 °C 8.9 °C 1029.3 hPa Calm     74 % 0 mm
02:25 13.3 °C 8.8 °C 1029.3 hPa Calm     74 % 0 mm
02:30 13.4 °C 8.9 °C 1029.3 hPa Calm     74 % 0 mm
02:35 13.4 °C 8.9 °C 1029.3 hPa Calm     74 % 0 mm
02:40 13.3 °C 8.8 °C 1029.3 hPa Calm     74 % 0 mm
02:45 13.3 °C 8.8 °C 1029.3 hPa Calm     74 % 0 mm
02:50 13.3 °C 8.8 °C 1029.3 hPa Calm     74 % 0 mm
02:55 13.2 °C 8.7 °C 1029.3 hPa Calm     74 % 0 mm
03:00 13.2 °C 8.7 °C 1029.3 hPa Calm     74 % 0 mm
03:05 13.2 °C 8.9 °C 1029 hPa Calm     75 % 0 mm
03:10 13.2 °C 9.1 °C 1029 hPa Calm   1.6 km/h 76 % 0 mm
03:15 13.2 °C 9.1 °C 1029 hPa Calm   1.6 km/h 76 % 0 mm
03:20 13.2 °C 9.1 °C 1028.7 hPa Calm   1.6 km/h 76 % 0 mm
03:25 13.2 °C 9.1 °C 1028.7 hPa Calm   1.6 km/h 76 % 0 mm
03:30 13.2 °C 9.1 °C 1028.7 hPa Calm   1.6 km/h 76 % 0 mm
03:35 13.2 °C 9.1 °C 1028.3 hPa Calm   1.6 km/h 76 % 0 mm
03:40 13.1 °C 9 °C 1028.7 hPa Calm   1.6 km/h 76 % 0 mm
03:45 13.1 °C 9.2 °C 1028.7 hPa Calm   1.6 km/h 77 % 0 mm
03:50 13.1 °C 9.2 °C 1028.7 hPa Calm   1.6 km/h 77 % 0 mm
03:55 13.1 °C 9.2 °C 1028.7 hPa Calm   3.2 km/h 77 % 0 mm
04:00 13.1 °C 9.2 °C 1028.7 hPa Calm   3.2 km/h 77 % 0 mm
04:05 13 °C 9.3 °C 1028.7 hPa Calm   3.2 km/h 78 % 0 mm
04:10 12.9 °C 9.2 °C 1028.7 hPa Calm   1.6 km/h 78 % 0 mm
04:15 12.8 °C 9.1 °C 1028.7 hPa Calm   1.6 km/h 78 % 0 mm
04:20 12.8 °C 9.1 °C 1028.7 hPa Calm     78 % 0 mm
04:25 12.6 °C 9.1 °C 1028.7 hPa Calm     79 % 0 mm
04:30 12.5 °C 9 °C 1028.7 hPa Calm     79 % 0 mm
04:36 12.5 °C 9.1 °C 1028.7 hPa Calm     80 % 0 mm
04:41 12.4 °C 9.2 °C 1029 hPa Calm     81 % 0 mm
04:46 12.4 °C 9.2 °C 1029 hPa Calm     81 % 0 mm
04:51 12.4 °C 9.2 °C 1029 hPa Calm     81 % 0 mm
04:56 12.5 °C 9.3 °C 1029 hPa Calm     81 % 0 mm
05:01 12.6 °C 9.4 °C 1028.7 hPa Calm   1.6 km/h 81 % 0 mm
05:06 12.6 °C 9.4 °C 1028.7 hPa East 1.6 km/h 1.6 km/h 81 % 0 mm
05:11 12.7 °C 9.5 °C 1028.7 hPa Calm   1.6 km/h 81 % 0 mm
05:16 12.7 °C 9.5 °C 1029 hPa Calm   1.6 km/h 81 % 0 mm
05:21 12.7 °C 9.5 °C 1029 hPa Calm   1.6 km/h 81 % 0 mm
05:26 12.8 °C 9.6 °C 1029 hPa Calm     81 % 0 mm
05:32 12.9 °C 9.7 °C 1029.3 hPa Calm     81 % 0 mm
05:37 13 °C 9.8 °C 1029.3 hPa Calm     81 % 0 mm
05:42 13.1 °C 9.9 °C 1029.3 hPa Calm   1.6 km/h 81 % 0 mm
05:47 13.1 °C 9.9 °C 1029.3 hPa Calm   1.6 km/h 81 % 0 mm
05:52 13.1 °C 9.9 °C 1029.3 hPa Calm   1.6 km/h 81 % 0 mm
05:57 13.2 °C 10 °C 1029.3 hPa Calm   1.6 km/h 81 % 0 mm
06:02 13.2 °C 10 °C 1029.3 hPa Calm   1.6 km/h 81 % 0 mm
06:07 13.2 °C 10 °C 1029.3 hPa Calm   1.6 km/h 81 % 0 mm
06:12 13.2 °C 10 °C 1029.3 hPa Calm   1.6 km/h 81 % 0 mm
06:17 13.3 °C 10.1 °C 1029.3 hPa Calm   1.6 km/h 81 % 0 mm
06:22 13.3 °C 10.1 °C 1029.3 hPa Calm   1.6 km/h 81 % 0 mm
06:27 13.3 °C 10.1 °C 1029.3 hPa Calm   3.2 km/h 81 % 0 mm
06:32 13.3 °C 10.1 °C 1029.3 hPa East 1.6 km/h 3.2 km/h 81 % 0 mm
06:37 13.3 °C 10.1 °C 1029.3 hPa Calm   3.2 km/h 81 % 0 mm
06:42 13.4 °C 10.2 °C 1029.3 hPa Calm   3.2 km/h 81 % 0 mm
06:47 13.4 °C 10.2 °C 1029.3 hPa Calm   3.2 km/h 81 % 0 mm
06:52 13.4 °C 10.2 °C 1029.3 hPa East 1.6 km/h 1.6 km/h 81 % 0 mm
06:57 13.5 °C 10.1 °C 1029.3 hPa Calm   3.2 km/h 80 % 0 mm
07:02 13.6 °C 10.2 °C 1029.3 hPa ESE 1.6 km/h 3.2 km/h 80 % 0 mm
07:07 13.7 °C 10.3 °C 1029.3 hPa Calm   3.2 km/h 80 % 0 mm
07:12 13.7 °C 10.3 °C 1029.3 hPa Calm   3.2 km/h 80 % 0 mm
07:17 13.8 °C 10.2 °C 1029.3 hPa Calm   3.2 km/h 79 % 0 mm
07:22 13.9 °C 10.3 °C 1029.7 hPa Calm   1.6 km/h 79 % 0 mm
07:27 13.9 °C 10.3 °C 1029.7 hPa Calm   1.6 km/h 79 % 0 mm
07:32 14.1 °C 10.3 °C 1029.7 hPa Calm   1.6 km/h 78 % 0 mm
07:37 14.2 °C 10.4 °C 1029.7 hPa Calm   3.2 km/h 78 % 0 mm
07:42 14.2 °C 10.4 °C 1029.7 hPa Calm   3.2 km/h 78 % 0 mm
07:47 14.3 °C 10.5 °C 1029.7 hPa NE 3.2 km/h 3.2 km/h 78 % 0 mm
07:52 14.3 °C 10.5 °C 1029.7 hPa North 3.2 km/h 4.8 km/h 78 % 0 mm
07:57 14.3 °C 10.5 °C 1029.7 hPa NNE 1.6 km/h 4.8 km/h 78 % 0 mm
08:02 14.3 °C 10.3 °C 1029.7 hPa ENE 4.8 km/h 4.8 km/h 77 % 0 mm
08:07 14.3 °C 10.3 °C 1029.7 hPa NE 3.2 km/h 6.4 km/h 77 % 0 mm
08:12 14.3 °C 10.3 °C 1030 hPa NE 6.4 km/h 8 km/h 77 % 0 mm
08:17 14.3 °C 10.1 °C 1030 hPa North 1.6 km/h 8 km/h 76 % 0 mm
08:22 14.3 °C 10.1 °C 1030 hPa ENE 1.6 km/h 8 km/h 76 % 0 mm
08:27 14.4 °C 10.2 °C 1029.7 hPa Calm   8 km/h 76 % 0 mm
08:32 14.4 °C 10.2 °C 1029.7 hPa East 3.2 km/h 6.4 km/h 76 % 0 mm
08:37 14.4 °C 10.2 °C 1029.7 hPa NW 3.2 km/h 11.3 km/h 76 % 0 mm
08:42 14.5 °C 10.3 °C 1030 hPa East 3.2 km/h 11.3 km/h 76 % 0 mm
08:47 14.6 °C 10.2 °C 1030 hPa NE 3.2 km/h 11.3 km/h 75 % 0 mm
08:52 14.7 °C 10.3 °C 1030 hPa East 4.8 km/h 8 km/h 75 % 0 mm
08:57 14.7 °C 10.3 °C 1030 hPa Calm   6.4 km/h 75 % 0 mm
09:02 14.7 °C 10.1 °C 1029.7 hPa ESE 3.2 km/h 9.7 km/h 74 % 0 mm
09:07 14.7 °C 10.1 °C 1029.7 hPa NE 6.4 km/h 11.3 km/h 74 % 0 mm
09:12 14.7 °C 10.3 °C 1029.7 hPa ESE 3.2 km/h 14.5 km/h 75 % 0 mm
09:17 14.7 °C 10.5 °C 1029.7 hPa Calm   19.3 km/h 76 % 0 mm
09:22 14.7 °C 10.5 °C 1029.7 hPa North 8 km/h 19.3 km/h 76 % 0 mm
09:27 14.7 °C 10.7 °C 1029.7 hPa East 6.4 km/h 19.3 km/h 77 % 0 mm
09:32 14.7 °C 10.5 °C 1029.7 hPa North 6.4 km/h 9.7 km/h 76 % 0 mm
09:37 14.7 °C 10.5 °C 1029.7 hPa NNW 4.8 km/h 16.1 km/h 76 % 0 mm
09:42 14.8 °C 10.6 °C 1030 hPa ENE 1.6 km/h 16.1 km/h 76 % 0 mm
09:47 14.8 °C 10.6 °C 1030 hPa North 8 km/h 16.1 km/h 76 % 0 mm
09:52 14.9 °C 10.7 °C 1030 hPa NNW 3.2 km/h 11.3 km/h 76 % 0 mm
09:57 14.9 °C 10.5 °C 1030 hPa ENE 4.8 km/h 11.3 km/h 75 % 0 mm
10:02 15 °C 10.8 °C 1030 hPa NE 4.8 km/h 11.3 km/h 76 % 0 mm
10:07 15.1 °C 10.7 °C 1030 hPa East 8 km/h 9.7 km/h 75 % 0 mm
10:12 15.2 °C 10.8 °C 1029.7 hPa East 3.2 km/h 11.3 km/h 75 % 0 mm
10:17 15.4 °C 11 °C 1029.7 hPa East 1.6 km/h 11.3 km/h 75 % 0 mm
10:22 15.7 °C 10.9 °C 1029.7 hPa ENE 4.8 km/h 16.1 km/h 73 % 0 mm
10:27 15.8 °C 10.8 °C 1029.7 hPa NE 6.4 km/h 16.1 km/h 72 % 0 mm
10:32 15.9 °C 10.9 °C 1029.7 hPa NNW 4.8 km/h 17.7 km/h 72 % 0 mm
10:37 16.1 °C 10.6 °C 1029.7 hPa ENE 3.2 km/h 17.7 km/h 70 % 0 mm
10:42 16.1 °C 10.8 °C 1030 hPa ESE 3.2 km/h 17.7 km/h 71 % 0 mm
10:47 16.3 °C 11 °C 1029.7 hPa ESE 6.4 km/h 17.7 km/h 71 % 0 mm
10:48 16.3 °C 10.8 °C 1029.7 hPa East 3.2 km/h 17.7 km/h 70 % 0 mm
10:53 16.4 °C 10.7 °C 1029.7 hPa SSW 3.2 km/h 17.7 km/h 69 % 0 mm
10:58 16.5 °C 10.6 °C 1029.7 hPa East 3.2 km/h 11.3 km/h 68 % 0 mm
11:03 16.7 °C 11 °C 1029.7 hPa North 1.6 km/h 14.5 km/h 69 % 0 mm
11:08 16.9 °C 11 °C 1029.7 hPa Calm   14.5 km/h 68 % 0 mm
11:13 17.1 °C 11.1 °C 1029.7 hPa NE 3.2 km/h 14.5 km/h 68 % 0 mm
11:18 17.3 °C 11.1 °C 1029.7 hPa Calm   9.7 km/h 67 % 0 mm
11:23 17.6 °C 11.2 °C 1029.3 hPa SE 6.4 km/h 11.3 km/h 66 % 0 mm
11:28 17.6 °C 10.9 °C 1029.3 hPa ESE 8 km/h 14.5 km/h 65 % 0 mm
11:33 17.6 °C 11.2 °C 1029.3 hPa NW 4.8 km/h 14.5 km/h 66 % 0 mm
11:38 17.5 °C 10.8 °C 1029.3 hPa ESE 1.6 km/h 14.5 km/h 65 % 0 mm
11:43 17.4 °C 10.8 °C 1029.3 hPa NNW 1.6 km/h 14.5 km/h 65 % 0 mm
11:48 17.4 °C 11 °C 1029.3 hPa SE 3.2 km/h 17.7 km/h 66 % 0 mm
11:53 17.4 °C 11 °C 1029.3 hPa NE 1.6 km/h 17.7 km/h 66 % 0 mm
11:58 17.6 °C 10.9 °C 1029.3 hPa NE 6.4 km/h 17.7 km/h 65 % 0 mm
12:03 17.6 °C 10.9 °C 1029.3 hPa NE 6.4 km/h 17.7 km/h 65 % 0 mm
12:08 17.6 °C 10.9 °C 1029 hPa NNE 4.8 km/h 11.3 km/h 65 % 0 mm
12:13 17.6 °C 10.9 °C 1028.7 hPa NE 4.8 km/h 11.3 km/h 65 % 0 mm
12:18 17.6 °C 11.2 °C 1028.7 hPa NNW 1.6 km/h 11.3 km/h 66 % 0 mm
12:23 17.5 °C 11.1 °C 1028.7 hPa East 3.2 km/h 11.3 km/h 66 % 0 mm
12:28 17.6 °C 11.2 °C 1028.3 hPa ESE 4.8 km/h 16.1 km/h 66 % 0 mm
12:33 17.7 °C 11.3 °C 1028.3 hPa East 1.6 km/h 16.1 km/h 66 % 0 mm
12:38 17.7 °C 11.3 °C 1028.3 hPa NE 4.8 km/h 16.1 km/h 66 % 0 mm
12:44 17.8 °C 11.1 °C 1028.3 hPa ENE 1.6 km/h 12.9 km/h 65 % 0 mm
12:49 18.1 °C 11.6 °C 1028.3 hPa NE 3.2 km/h 11.3 km/h 66 % 0 mm
12:54 18.1 °C 11.4 °C 1028.3 hPa East 4.8 km/h 12.9 km/h 65 % 0 mm
12:59 18.1 °C 11.2 °C 1028 hPa ESE 1.6 km/h 12.9 km/h 64 % 0 mm
13:04 18.3 °C 11.4 °C 1028 hPa ENE 3.2 km/h 12.9 km/h 64 % 0 mm
13:09 18.3 °C 11.4 °C 1028.3 hPa SE 11.3 km/h 11.3 km/h 64 % 0 mm
13:14 18.2 °C 11.5 °C 1028.3 hPa East 3.2 km/h 12.9 km/h 65 % 0 mm
13:19 18.1 °C 11.4 °C 1028 hPa ENE 3.2 km/h 12.9 km/h 65 % 0 mm
13:24 18 °C 11.6 °C 1028.3 hPa ESE 6.4 km/h 12.9 km/h 66 % 0 mm
13:29 17.9 °C 11.5 °C 1028 hPa SE 6.4 km/h 11.3 km/h 66 % 0 mm
13:34 17.9 °C 11.9 °C 1028 hPa East 3.2 km/h 9.7 km/h 68 % 0 mm
13:39 17.9 °C 12.1 °C 1028 hPa ENE 1.6 km/h 9.7 km/h 69 % 0 mm
13:44 17.8 °C 12.3 °C 1028 hPa ENE 1.6 km/h 9.7 km/h 70 % 0 mm
13:49 17.7 °C 12.8 °C 1028 hPa SE 6.4 km/h 9.7 km/h 73 % 0 mm
13:54 17.6 °C 12.7 °C 1028 hPa Calm   9.7 km/h 73 % 0 mm
13:59 17.4 °C 13.1 °C 1028 hPa Calm   9.7 km/h 76 % 0.25 mm
14:04 17.3 °C 13.2 °C 1027.7 hPa Calm   9.7 km/h 77 % 0.25 mm
14:09 17.1 °C 13.4 °C 1027.7 hPa Calm   3.2 km/h 79 % 0.51 mm
14:14 16.9 °C 13.6 °C 1027.7 hPa Calm   4.8 km/h 81 % 0.51 mm
14:19 16.8 °C 13.7 °C 1027.3 hPa ENE 1.6 km/h 4.8 km/h 82 % 0.51 mm
14:24 16.7 °C 13.8 °C 1027.3 hPa Calm   4.8 km/h 83 % 0.51 mm
14:29 16.7 °C 14 °C 1027 hPa NNE 3.2 km/h 4.8 km/h 84 % 0.51 mm
14:34 16.6 °C 13.9 °C 1027 hPa NE 1.6 km/h 3.2 km/h 84 % 0.51 mm
14:39 16.6 °C 13.9 °C 1026.6 hPa Calm   4.8 km/h 84 % 0.76 mm
14:44 16.6 °C 13.9 °C 1026.6 hPa East 1.6 km/h 6.4 km/h 84 % 0.76 mm
14:49 16.6 °C 13.9 °C 1026.6 hPa North 3.2 km/h 6.4 km/h 84 % 0.76 mm
14:54 16.4 °C 13.5 °C 1026.6 hPa NNE 1.6 km/h 6.4 km/h 83 % 0.76 mm
14:59 16.4 °C 13.7 °C 1026.6 hPa SE 1.6 km/h 12.9 km/h 84 % 0.51 mm
15:04 16.4 °C 13.5 °C 1026.6 hPa ESE 3.2 km/h 12.9 km/h 83 % 0.51 mm
15:09 16.4 °C 13.5 °C 1026.6 hPa NNE 3.2 km/h 12.9 km/h 83 % 0.25 mm
15:14 16.4 °C 13.5 °C 1026.6 hPa SE 1.6 km/h 11.3 km/h 83 % 0.25 mm
15:19 16.5 °C 13.6 °C 1026.3 hPa Calm   11.3 km/h 83 % 0.25 mm
15:20 16.5 °C 13.6 °C 1026.3 hPa Calm   8 km/h 83 % 0.25 mm
15:25 16.6 °C 13.7 °C 1026.3 hPa Calm   9.7 km/h 83 % 0.25 mm
15:30 16.6 °C 13.7 °C 1026.3 hPa East 6.4 km/h 11.3 km/h 83 % 0.25 mm
15:35 16.5 °C 13.6 °C 1026.3 hPa ESE 4.8 km/h 11.3 km/h 83 % 0 mm
15:40 16.5 °C 13.6 °C 1026.3 hPa ENE 3.2 km/h 11.3 km/h 83 % 0 mm
15:45 16.5 °C 13.8 °C 1026.3 hPa NNE 1.6 km/h 11.3 km/h 84 % 0 mm
15:51 16.5 °C 13.8 °C 1026 hPa East 3.2 km/h 9.7 km/h 84 % 0 mm
15:56 16.5 °C 13.8 °C 1026 hPa North 4.8 km/h 11.3 km/h 84 % 0 mm
16:01 16.5 °C 13.6 °C 1026 hPa NNW 4.8 km/h 12.9 km/h 83 % 0 mm
16:06 16.4 °C 13.3 °C 1026 hPa NE 4.8 km/h 16.1 km/h 82 % 0 mm
16:11 16.3 °C 13.2 °C 1026 hPa NE 4.8 km/h 16.1 km/h 82 % 0 mm
16:16 16.3 °C 13.2 °C 1026 hPa Calm   16.1 km/h 82 % 0 mm
16:21 16.3 °C 13.2 °C 1026 hPa ENE 4.8 km/h 11.3 km/h 82 % 0 mm
16:26 16.3 °C 13 °C 1026 hPa Calm   11.3 km/h 81 % 0 mm
16:31 16.2 °C 12.7 °C 1026 hPa East 3.2 km/h 16.1 km/h 80 % 0 mm
16:36 16.2 °C 12.9 °C 1026 hPa ESE 4.8 km/h 16.1 km/h 81 % 0 mm
16:41 16.1 °C 12.8 °C 1026 hPa East 3.2 km/h 16.1 km/h 81 % 0 mm
16:46 16.1 °C 12.8 °C 1026 hPa East 4.8 km/h 12.9 km/h 81 % 0 mm
16:51 16.1 °C 12.8 °C 1026 hPa ESE 1.6 km/h 11.3 km/h 81 % 0 mm
16:56 15.9 °C 12.5 °C 1026 hPa SE 8 km/h 11.3 km/h 80 % 0 mm
17:01 15.9 °C 12.5 °C 1026 hPa SSE 3.2 km/h 12.9 km/h 80 % 0 mm
17:06 15.9 °C 12.5 °C 1026 hPa ESE 3.2 km/h 12.9 km/h 80 % 0 mm
17:11 15.9 °C 12.5 °C 1026 hPa ESE 1.6 km/h 12.9 km/h 80 % 0 mm
17:16 15.8 °C 12.5 °C 1026 hPa ESE 3.2 km/h 9.7 km/h 81 % 0 mm
17:21 15.6 °C 12.5 °C 1026.3 hPa Calm   11.3 km/h 82 % 0 mm
17:26 15.4 °C 12.7 °C 1026.3 hPa Calm   11.3 km/h 84 % 0.25 mm
17:31 15.2 °C 12.5 °C 1026.3 hPa SE 1.6 km/h 11.3 km/h 84 % 0.25 mm
17:36 15.1 °C 12.6 °C 1026.6 hPa East 3.2 km/h 9.7 km/h 85 % 0.25 mm
17:41 14.9 °C 12.8 °C 1026.6 hPa ESE 3.2 km/h 9.7 km/h 87 % 0.25 mm
17:46 14.8 °C 12.7 °C 1026.6 hPa Calm   9.7 km/h 87 % 0.51 mm
17:51 14.7 °C 12.7 °C 1026.6 hPa Calm   9.7 km/h 88 % 0.51 mm
17:56 14.6 °C 12.8 °C 1026.6 hPa Calm   4.8 km/h 89 % 0.51 mm
18:01 14.6 °C 12.8 °C 1027 hPa East 1.6 km/h 3.2 km/h 89 % 0.51 mm
18:06 14.6 °C 13 °C 1027 hPa Calm   3.2 km/h 90 % 0.51 mm
18:11 14.4 °C 12.8 °C 1027 hPa Calm   4.8 km/h 90 % 0.51 mm
18:16 14.4 °C 12.8 °C 1027 hPa Calm   4.8 km/h 90 % 0.51 mm
18:21 14.3 °C 12.7 °C 1027.3 hPa Calm   4.8 km/h 90 % 0.51 mm
18:26 14.3 °C 12.7 °C 1027.3 hPa Calm   4.8 km/h 90 % 0.25 mm
18:31 14.3 °C 12.9 °C 1027.3 hPa ESE 1.6 km/h 4.8 km/h 91 % 0.25 mm
18:36 14.2 °C 12.6 °C 1027.3 hPa Calm   4.8 km/h 90 % 0.25 mm
18:41 14.2 °C 12.6 °C 1027.3 hPa Calm   4.8 km/h 90 % 0.25 mm
18:46 14.2 °C 12.8 °C 1027 hPa ESE 1.6 km/h 4.8 km/h 91 % 0.25 mm
18:51 14.1 °C 12.5 °C 1027 hPa East 6.4 km/h 6.4 km/h 90 % 0.25 mm
18:56 14.1 °C 12.7 °C 1027 hPa East 1.6 km/h 9.7 km/h 91 % 0.25 mm
19:01 14 °C 12.6 °C 1027 hPa ENE 8 km/h 9.7 km/h 91 % 0.51 mm
19:06 13.9 °C 12.5 °C 1026.6 hPa NE 8 km/h 9.7 km/h 91 % 0.51 mm
19:11 13.8 °C 12.4 °C 1026.6 hPa ENE 1.6 km/h 12.9 km/h 91 % 0.51 mm
19:16 13.8 °C 12.5 °C 1026.6 hPa ENE 4.8 km/h 12.9 km/h 92 % 0.51 mm
19:17 13.8 °C 12.5 °C 1026.6 hPa ESE 4.8 km/h 12.9 km/h 92 % 0.51 mm
19:22 13.7 °C 12.4 °C 1026.6 hPa East 3.2 km/h 12.9 km/h 92 % 0.51 mm
19:27 13.7 °C 12.4 °C 1026.6 hPa ENE 1.6 km/h 8 km/h 92 % 0.76 mm
19:32 13.7 °C 12.4 °C 1026.6 hPa ESE 3.2 km/h 9.7 km/h 92 % 0.76 mm
19:37 13.6 °C 12.5 °C 1026.3 hPa ENE 4.8 km/h 9.7 km/h 93 % 0.76 mm
19:42 13.6 °C 12.5 °C 1026.3 hPa NNW 1.6 km/h 9.7 km/h 93 % 1.02 mm
19:47 13.5 °C 12.4 °C 1026.3 hPa ENE 4.8 km/h 8 km/h 93 % 0.76 mm
19:52 13.5 °C 12.4 °C 1026.3 hPa SE 3.2 km/h 9.7 km/h 93 % 0.76 mm
19:57 13.4 °C 12.3 °C 1026.3 hPa North 3.2 km/h 11.3 km/h 93 % 0.76 mm
20:02 13.5 °C 12.6 °C 1026 hPa ENE 3.2 km/h 11.3 km/h 94 % 0.51 mm
20:07 13.5 °C 12.6 °C 1026 hPa West 1.6 km/h 11.3 km/h 94 % 0.51 mm
20:12 13.5 °C 12.4 °C 1026 hPa ENE 3.2 km/h 11.3 km/h 93 % 0.51 mm
20:17 13.4 °C 12.3 °C 1026 hPa ENE 1.6 km/h 11.3 km/h 93 % 0.51 mm
20:22 13.4 °C 12.3 °C 1026 hPa NNE 1.6 km/h 12.9 km/h 93 % 0.51 mm
20:27 13.4 °C 12.3 °C 1026 hPa ENE 1.6 km/h 12.9 km/h 93 % 0.25 mm
20:32 13.4 °C 12.3 °C 1026 hPa ENE 3.2 km/h 12.9 km/h 93 % 0.25 mm
20:37 13.4 °C 12.5 °C 1026 hPa Calm   11.3 km/h 94 % 0.25 mm
20:42 13.4 °C 12.5 °C 1026 hPa ESE 1.6 km/h 9.7 km/h 94 % 0 mm
20:47 13.4 °C 12.5 °C 1026 hPa ENE 3.2 km/h 8 km/h 94 % 0 mm
20:52 13.4 °C 12.5 °C 1026 hPa ESE 3.2 km/h 8 km/h 94 % 0 mm
20:57 13.4 °C 12.5 °C 1026 hPa ENE 4.8 km/h 8 km/h 94 % 0 mm
21:02 13.4 °C 12.5 °C 1026 hPa ENE 3.2 km/h 9.7 km/h 94 % 0 mm
21:07 13.5 °C 12.6 °C 1026 hPa Calm   9.7 km/h 94 % 0 mm
21:12 13.5 °C 12.6 °C 1026 hPa Calm   9.7 km/h 94 % 0 mm
21:17 13.5 °C 12.6 °C 1026 hPa NNE 1.6 km/h 8 km/h 94 % 0 mm
21:22 13.5 °C 12.6 °C 1026 hPa East 1.6 km/h 8 km/h 94 % 0 mm
21:27 13.5 °C 12.6 °C 1025.6 hPa Calm   8 km/h 94 % 0 mm
21:32 13.5 °C 12.6 °C 1025.6 hPa SE 1.6 km/h 8 km/h 94 % 0 mm
21:38 13.6 °C 12.7 °C 1025.6 hPa ENE 3.2 km/h 9.7 km/h 94 % 0 mm
21:43 13.6 °C 12.7 °C 1025.3 hPa Calm   9.7 km/h 94 % 0 mm
21:48 13.6 °C 12.7 °C 1025.3 hPa ESE 1.6 km/h 9.7 km/h 94 % 0 mm
21:53 13.6 °C 12.7 °C 1025.3 hPa ESE 3.2 km/h 11.3 km/h 94 % 0 mm
21:58 13.6 °C 12.7 °C 1025.3 hPa SE 3.2 km/h 11.3 km/h 94 % 0 mm
22:03 13.7 °C 12.8 °C 1024.9 hPa Calm   11.3 km/h 94 % 0 mm
22:08 13.7 °C 12.8 °C 1024.9 hPa ENE 6.4 km/h 9.7 km/h 94 % 0 mm
22:13 13.7 °C 12.8 °C 1024.9 hPa SW 1.6 km/h 9.7 km/h 94 % 0 mm
22:18 13.7 °C 12.8 °C 1024.9 hPa NNE 4.8 km/h 9.7 km/h 94 % 0 mm
22:23 13.7 °C 12.8 °C 1024.6 hPa East 1.6 km/h 11.3 km/h 94 % 0 mm
22:28 13.8 °C 12.9 °C 1024.3 hPa East 3.2 km/h 11.3 km/h 94 % 0 mm
22:33 13.8 °C 12.9 °C 1024.3 hPa East 6.4 km/h 11.3 km/h 94 % 0 mm
22:38 13.8 °C 12.9 °C 1024.3 hPa ENE 3.2 km/h 11.3 km/h 94 % 0 mm
22:43 13.8 °C 12.9 °C 1024.3 hPa ESE 4.8 km/h 11.3 km/h 94 % 0 mm
22:48 13.9 °C 12.9 °C 1023.9 hPa SE 4.8 km/h 9.7 km/h 94 % 0 mm
22:53 13.9 °C 12.9 °C 1023.6 hPa ENE 3.2 km/h 11.3 km/h 94 % 0.25 mm
22:58 13.9 °C 12.9 °C 1023.9 hPa Calm   11.3 km/h 94 % 0.25 mm
23:03 14 °C 13 °C 1023.9 hPa SE 1.6 km/h 11.3 km/h 94 % 0.25 mm
23:08 14.1 °C 13.1 °C 1023.9 hPa ESE 4.8 km/h 11.3 km/h 94 % 0.25 mm
23:13 14.2 °C 13.2 °C 1023.6 hPa SE 11.3 km/h 11.3 km/h 94 % 0.25 mm
23:18 14.4 °C 13.4 °C 1023.9 hPa ESE 6.4 km/h 12.9 km/h 94 % 0.25 mm
23:23 14.7 °C 13.7 °C 1023.9 hPa Calm   16.1 km/h 94 % 0.25 mm
23:28 14.8 °C 13.8 °C 1023.6 hPa ESE 16.1 km/h 16.1 km/h 94 % 0.25 mm
23:33 14.9 °C 13.9 °C 1023.2 hPa East 8 km/h 16.1 km/h 94 % 0.25 mm
23:38 15.1 °C 14 °C 1023.2 hPa ENE 14.5 km/h 17.7 km/h 93 % 0.25 mm
23:43 15.2 °C 14.1 °C 1023.2 hPa ENE 1.6 km/h 17.7 km/h 93 % 0.25 mm
23:48 15.2 °C 14.1 °C 1023.2 hPa SE 4.8 km/h 17.7 km/h 93 % 0.25 mm
23:53 15.2 °C 13.9 °C 1023.2 hPa North 1.6 km/h 16.1 km/h 92 % 0 mm
23:58 15.3 °C 14 °C 1023.2 hPa SE 8 km/h 16.1 km/h 92 % 0 mm
Spring, Texas: Villages of Bridgestone
Compliments of Weather Underground - 2.75 mb

Script developed by  Jim McMurry - jmcmurry@mwt.net Adapted for the template by  Wim van der Kuil - Leuven-Template.eu

You find our weather info also at:

UK Metoffice

WeatherCloud

Weather Underground

Mid-South Weather Network

AWEKAS

Citizen Weather Observer Program (CWOP)

HAMweather, WeatherForYou, PWS Weather

Equipment we use:

Weather-station
Davis Vantage Vue

Weather-program
Meteohub

Weather-server
Debian 7.9 x86 (Guest)

Provider
DreamHost

Davis Vantage Vue

Meteohub

Debian 7.9 x86 (Guest)

DreamHost